| time (UTC) | temp F | wind direction | speed knots | gust knots | rain 1hr in | rain 24hr in | rain mn in | humidity % | barometer mb |
| 20260906020107 | 61 | 294 | 2.6 | 6.1 | 0.00 | 0.01 | 0.01 | 77 | 1016.6 |
| 20260906014547 | 64 | 255 | 1.7 | 7.0 | 0.00 | 0.01 | 0.01 | 73 | 1016.5 |
| 20260906013101 | 65 | 248 | 4.3 | 7.0 | 0.00 | 0.01 | 0.01 | 70 | 1016.6 |
| 20260906011601 | 68 | 264 | 1.7 | 3.5 | 0.00 | 0.01 | 0.01 | 67 | 1016.6 |
| 20260906010057 | 70 | 246 | 0.9 | 3.5 | 0.00 | 0.01 | 0.01 | 54 | 1016.6 |
| 20260906004602 | 70 | 245 | 1.7 | 3.5 | 0.00 | 0.01 | 0.01 | 53 | 1016.6 |
| 20260906003057 | 71 | 232 | 0.9 | 4.3 | 0.00 | 0.01 | 0.01 | 56 | 1016.6 |
| 20260906001558 | 70 | 111 | 1.7 | 3.5 | 0.00 | 0.01 | 0.01 | 55 | 1016.6 |
| 20260906000057 | 71 | 0 | 0.9 | 6.1 | 0.00 | 0.01 | 0.01 | 53 | 1016.7 |
| 20260905234554 | 71 | 0 | 0.9 | 5.2 | 0.00 | 0.01 | 0.01 | 53 | 1016.5 |
| 20260905233050 | 70 | 340 | 0.9 | 6.1 | 0.00 | 0.01 | 0.01 | 55 | 1016.7 |
| 20260905231549 | 69 | 269 | 0.0 | 3.5 | 0.00 | 0.01 | 0.01 | 57 | 1016.6 |
| 20260905230055 | 68 | 0 | 0.9 | 5.2 | 0.00 | 0.01 | 0.01 | 60 | 1016.7 |
| 20260905224554 | 67 | 38 | 2.6 | 5.2 | 0.00 | 0.01 | 0.01 | 63 | 1016.9 |
| 20260905223048 | 66 | 154 | 0.0 | 4.3 | 0.00 | 0.01 | 0.01 | 63 | 1017.0 |
| 20260905221554 | 67 | 0 | 1.7 | 4.3 | 0.00 | 0.01 | 0.01 | 61 | 1017.2 |
| 20260905214602 | 68 | 17 | 3.5 | 7.0 | 0.00 | 0.01 | 0.01 | 65 | 1017.4 |
| 20260905213054 | 66 | 164 | 1.7 | 6.1 | 0.00 | 0.01 | 0.01 | 66 | 1017.6 |
| 20260905211553 | 66 | 202 | 1.7 | 5.2 | 0.00 | 0.01 | 0.01 | 66 | 1017.7 |
| 20260905210115 | 67 | 36 | 1.7 | 7.0 | 0.00 | 0.01 | 0.01 | 67 | 1017.7 |
| 20260905204602 | 66 | 5 | 0.9 | 3.5 | 0.00 | 0.01 | 0.01 | 68 | 1017.8 |
| 20260905203055 | 64 | 167 | 1.7 | 5.2 | 0.00 | 0.01 | 0.01 | 72 | 1018.0 |
| 20260905201552 | 64 | 0 | 0.0 | 5.2 | 0.00 | 0.01 | 0.01 | 72 | 1018.1 |
| 20260905200050 | 63 | 181 | 0.0 | 2.6 | 0.00 | 0.01 | 0.01 | 72 | 1018.1 |
| 20260905194610 | 63 | 205 | 1.7 | 5.2 | 0.00 | 0.01 | 0.01 | 73 | 1018.2 |
| 20260905193053 | 63 | 0 | 0.9 | 3.5 | 0.00 | 0.01 | 0.01 | 76 | 1018.2 |
| 20260905191553 | 63 | 329 | 0.9 | 4.3 | 0.00 | 0.01 | 0.01 | 79 | 1018.2 |
| 20260905190048 | 63 | 235 | 2.6 | 5.2 | 0.00 | 0.01 | 0.01 | 77 | 1018.2 |
| 20260905184614 | 63 | 58 | 0.0 | 5.2 | 0.00 | 0.01 | 0.01 | 76 | 1018.6 |
| 20260905183105 | 62 | 214 | 0.9 | 2.6 | 0.00 | 0.01 | 0.01 | 81 | 1018.6 |
| 20260905181557 | 60 | 0 | 0.0 | 3.5 | 0.00 | 0.01 | 0.01 | 85 | 1018.5 |
| 20260905180055 | 60 | 0 | 0.9 | 2.6 | 0.00 | 0.01 | 0.01 | 87 | 1018.8 |
| 20260905174552 | 59 | 110 | 1.7 | 5.2 | 0.00 | 0.01 | 0.01 | 87 | 1018.7 |
| 20260905173047 | 60 | 0 | 1.7 | 5.2 | 0.00 | 0.01 | 0.01 | 86 | 1018.6 |
| 20260905171605 | 59 | 107 | 0.0 | 2.6 | 0.00 | 0.01 | 0.01 | 89 | 1018.6 |
| 20260905170101 | 58 | 0 | 0.0 | 2.6 | 0.00 | 0.01 | 0.01 | 93 | 1018.4 |
| 20260905164602 | 57 | 0 | 0.0 | 2.6 | 0.00 | 0.02 | 0.01 | 94 | 1018.4 |
| 20260905163110 | 56 | 0 | 0.0 | 1.7 | 0.00 | 0.02 | 0.01 | 95 | 1018.5 |
| 20260905161551 | 55 | 0 | 0.0 | 0.9 | 0.00 | 0.02 | 0.01 | 96 | 1018.3 |
| 20260905160100 | 55 | 0 | 0.0 | 1.7 | 0.00 | 0.02 | 0.01 | 96 | 1018.4 |
| 20260905154615 | 54 | 0 | 0.0 | 0.0 | 0.00 | 0.02 | 0.01 | 96 | 1018.4 |
| 20260905153107 | 54 | 0 | 0.0 | 1.7 | 0.00 | 0.02 | 0.01 | 96 | 1018.4 |
| 20260905151614 | 54 | 0 | 0.0 | 2.6 | 0.00 | 0.02 | 0.01 | 96 | 1018.5 |
| 20260905150059 | 54 | 13 | 0.9 | 2.6 | 0.00 | 0.02 | 0.01 | 97 | 1018.2 |
| 20260905144600 | 53 | 0 | 0.0 | 0.9 | 0.00 | 0.02 | 0.01 | 97 | 1018.3 |
| 20260905143056 | 52 | 0 | 0.0 | 0.9 | 0.00 | 0.02 | 0.01 | 97 | 1018.4 |
| 20260905141551 | 52 | 0 | 0.0 | 0.0 | 0.00 | 0.02 | 0.01 | 96 | 1018.2 |
| 20260905140100 | 52 | 0 | 0.0 | 0.0 | 0.00 | 0.02 | 0.01 | 96 | 1018.2 |
| 20260905134558 | 51 | 0 | 0.0 | 0.0 | 0.00 | 0.02 | 0.01 | 96 | 1018.0 |
| 20260905133051 | 51 | 0 | 0.0 | 0.0 | 0.00 | 0.02 | 0.01 | 96 | 1018.0 |
| 20260905131604 | 51 | 0 | 0.0 | 0.0 | 0.00 | 0.02 | 0.01 | 96 | 1018.1 |
| 20260905130055 | 51 | 0 | 0.0 | 0.0 | 0.00 | 0.02 | 0.01 | 96 | 1018.0 |
| 20260905124552 | 51 | 0 | 0.0 | 0.0 | 0.00 | 0.02 | 0.01 | 96 | 1017.9 |
| 20260905123102 | 51 | 0 | 0.0 | 0.0 | 0.00 | 0.02 | 0.01 | 96 | 1017.9 |
| 20260905121602 | 51 | 0 | 0.0 | 1.7 | 0.00 | 0.02 | 0.01 | 96 | 1017.9 |
| 20260905120052 | 51 | 0 | 0.0 | 0.0 | 0.00 | 0.02 | 0.01 | 96 | 1017.7 |
| 20260905114554 | 51 | 306 | 0.0 | 0.9 | 0.00 | 0.02 | 0.01 | 96 | 1017.7 |
| 20260905113051 | 51 | 306 | 0.0 | 1.7 | 0.00 | 0.02 | 0.01 | 96 | 1017.7 |
| 20260905111641 | 51 | 0 | 0.0 | 0.9 | 0.00 | 0.02 | 0.01 | 96 | 1017.6 |
| 20260905110057 | 51 | 258 | 0.0 | 0.9 | 0.00 | 0.02 | 0.01 | 96 | 1017.7 |
| 20260905104547 | 51 | 258 | 0.0 | 1.7 | 0.00 | 0.02 | 0.01 | 96 | 1017.8 |
| 20260905103102 | 50 | 258 | 0.0 | 1.7 | 0.00 | 0.02 | 0.01 | 96 | 1017.8 |
| 20260905101604 | 50 | 0 | 0.0 | 0.0 | 0.00 | 0.02 | 0.01 | 96 | 1017.8 |
| 20260905100052 | 50 | 0 | 0.0 | 0.0 | 0.00 | 0.02 | 0.01 | 96 | 1017.7 |
| 20260905094549 | 50 | 0 | 0.0 | 0.0 | 0.00 | 0.02 | 0.01 | 96 | 1017.6 |
| 20260905093106 | 50 | 0 | 0.0 | 0.0 | 0.00 | 0.02 | 0.01 | 96 | 1017.6 |
| 20260905091553 | 49 | 0 | 0.0 | 0.0 | 0.00 | 0.02 | 0.01 | 96 | 1017.5 |
| 20260905090059 | 49 | 0 | 0.0 | 0.0 | 0.00 | 0.02 | 0.01 | 96 | 1017.4 |
| 20260905084604 | 49 | 0 | 0.0 | 0.0 | 0.01 | 0.02 | 0.01 | 96 | 1017.5 |
| 20260905083052 | 48 | 0 | 0.0 | 0.0 | 0.01 | 0.02 | 0.01 | 96 | 1017.5 |
| 20260905081552 | 48 | 258 | 0.0 | 1.7 | 0.01 | 0.02 | 0.01 | 96 | 1017.3 |
| 20260905080058 | 47 | 0 | 0.0 | 0.0 | 0.01 | 0.02 | 0.01 | 95 | 1017.3 |
| 20260905074558 | 47 | 0 | 0.0 | 0.9 | 0.00 | 0.01 | 0.00 | 95 | 1017.2 |
| 20260905073056 | 48 | 0 | 0.0 | 0.0 | 0.00 | 0.01 | 0.00 | 95 | 1017.2 |
| 20260905071549 | 48 | 0 | 0.0 | 0.9 | 0.00 | 0.01 | 0.00 | 95 | 1017.1 |
| 20260905070059 | 48 | 0 | 0.0 | 0.0 | 0.00 | 0.01 | 0.00 | 95 | 1017.1 |
| 20260905064601 | 48 | 0 | 0.0 | 0.9 | 0.00 | 0.01 | 0.01 | 95 | 1016.9 |
| 20260905063055 | 49 | 258 | 0.0 | 2.6 | 0.00 | 0.01 | 0.01 | 95 | 1016.7 |
| 20260905061556 | 49 | 0 | 0.0 | 0.0 | 0.00 | 0.01 | 0.01 | 94 | 1016.7 |
| 20260905060051 | 50 | 0 | 0.0 | 0.0 | 0.00 | 0.01 | 0.01 | 94 | 1016.8 |
| 20260905054555 | 50 | 0 | 0.0 | 0.9 | 0.00 | 0.02 | 0.01 | 94 | 1016.7 |
| 20260905053103 | 51 | 0 | 0.0 | 1.7 | 0.00 | 0.02 | 0.01 | 95 | 1016.8 |
| 20260905051551 | 51 | 264 | 0.0 | 2.6 | 0.00 | 0.02 | 0.01 | 94 | 1016.9 |
| 20260905050059 | 51 | 261 | 0.0 | 1.7 | 0.00 | 0.02 | 0.01 | 94 | 1016.9 |
| 20260905044557 | 51 | 0 | 0.0 | 0.0 | 0.00 | 0.02 | 0.01 | 93 | 1016.7 |
| 20260905043058 | 52 | 0 | 0.0 | 1.7 | 0.00 | 0.02 | 0.01 | 93 | 1016.7 |
| 20260905041548 | 52 | 271 | 0.9 | 3.5 | 0.00 | 0.02 | 0.01 | 93 | 1016.6 |
| 20260905040106 | 53 | 0 | 0.0 | 2.6 | 0.00 | 0.02 | 0.01 | 92 | 1016.5 |
| 20260905034610 | 53 | 260 | 0.0 | 3.5 | 0.00 | 0.02 | 0.01 | 92 | 1016.4 |
| 20260905033114 | 54 | 267 | 1.7 | 3.5 | 0.00 | 0.02 | 0.01 | 92 | 1016.1 |
| 20260905031612 | 54 | 254 | 0.9 | 2.6 | 0.00 | 0.02 | 0.01 | 92 | 1016.0 |
| 20260905024601 | 56 | 171 | 0.9 | 2.6 | 0.00 | 0.02 | 0.01 | 90 | 1015.7 |
| 20260905023125 | 57 | 0 | 0.9 | 3.5 | 0.00 | 0.02 | 0.01 | 88 | 1015.5 |
| 20260905021600 | 58 | 208 | 1.7 | 6.1 | 0.00 | 0.02 | 0.01 | 87 | 1015.6 |